Regional Weather Roundup
Issued by NWS

Home | Current Version | Previous Version | Text Only | Print | Product List | Glossary On
Versions: 1 2 3 4 5 6 7 8 9 10 11 12 13 14 15 16 17 18 19 20 21 22 23 24 25 26 27 28 29 30 31 32 33 34 35 36 37 38 39 40 41 42 43 44 45 46 47 48 49 50
000
ASCA42 TJSJ 311411
RWRPR
PUERTO RICO/U.S. VIRGIN ISLANDS HOURLY WEATHER ROUNDUP
NATIONAL WEATHER SERVICE SAN JUAN PR
1000 AM AST SAT JAN 31 2015

PRZ001-004-311500-
PUERTO RICO

CITY           SKY/WX    TMP DP  RH WIND       PRES   REMARKS
SAN JUAN LMM   MOSUNNY   81  72  74 E8        30.04R
PONCE          MOSUNNY   82  70  65 SE6       30.00R
AGUADILLA      MOSUNNY   79  70  73 E9        30.06R
CEIBA          MOSUNNY   81  70  69 NE8       30.06R
$$

PRZ006-007-311500-
U.S. VIRGIN ISLANDS

CITY           SKY/WX    TMP DP  RH WIND       PRES   REMARKS
$$

HOURLY WEATHER ROUNDUP FOR THE NEWS MEDIA

CITY           SKY/WX    TMP DP  RH WIND       PRES   REMARKS
MIAMI          MOSUNNY   65  51  60 N5        30.21R
ORLANDO        SUNNY     54  42  64 N7        30.27R
NEW YORK       MOSUNNY   15  -3  44 NW25G35   30.10S WCI  -4
NEWARK         SUNNY     15  -3  44 NW17G29   30.15R WCI  -1
CHICAGO        MOCLDY    25  19  78 SW7       30.23S WCI  17
HARTFORD       PTSUNNY   15  -2  46 NW16G31   29.78R WCI  -1
BOSTON         CLOUDY    13  -1  54 NW23G37   29.81S WCI  -6
DALLAS         CLOUDY    47  32  56 SE16      30.22R
PHILADELPHIA   SUNNY     16  -3  43 NW23G31   30.26R WCI  -2


USA.gov is the U.S. government's official web portal to all federal, state and local government web resources and services.